Location: Munderkingen
(48.2395°N, 9.6433°E)
Time: 14:37:16
(UTC+01:00)

N. Korean satellite - Visible Passes

Search period start: 19 February 2018 00:00
Search period end: 01 March 2018 00:00
Orbit: 459 x 514 km, 97.2° (Epoch: 18 February)

Date Brightness Start Highest point End Pass type
(mag) Time Alt. Az. Time Alt. Az. Time Alt. Az.
19 Feb 10.2 19:21:46 10° WSW 19:23:21 13° W 19:24:56 10° WNW visible
20 Feb 8.3 06:42:54 10° NNE 06:46:22 39° E 06:49:51 10° S visible
20 Feb 9.3 18:56:36 10° SSW 18:59:23 23° W 19:02:14 10° NW visible
21 Feb 9.6 06:19:35 10° NE 06:22:30 22° E 06:25:25 10° SE visible
21 Feb 7.9 18:32:13 10° S 18:35:32 43° W 18:38:54 10° NNW visible
22 Feb 10.4 05:56:56 10° ENE 05:58:34 12° E 06:00:12 10° ESE visible
23 Feb 10.1 19:20:06 10° WSW 19:21:50 13° W 19:23:34 10° WNW visible
24 Feb 8.4 06:41:24 10° NNE 06:44:53 39° E 06:48:23 10° SSE visible
24 Feb 9.3 18:55:01 10° SSW 18:57:52 24° W 19:00:47 10° NW visible
25 Feb 9.7 06:18:05 10° NE 06:21:00 22° E 06:23:56 10° SE visible
25 Feb 7.9 18:30:39 10° S 18:33:59 45° W 18:37:25 10° NNW visible
26 Feb 10.4 05:55:28 10° ENE 05:57:02 12° E 05:58:38 10° ESE visible
27 Feb 10.1 19:18:24 10° WSW 19:20:15 14° W 19:22:09 10° WNW visible
28 Feb 9.3 18:53:22 10° SSW 18:56:17 25° W 18:59:17 10° NW visible
